Regional Weather Roundup
Issued by NWS

Home | Current Version | Previous Version | Text Only | Print | Product List | Glossary On
Versions: 1 2 3 4 5 6 7 8 9 10 11 12 13 14 15 16 17 18 19 20 21 22 23 24 25 26 27 28 29 30 31 32 33 34 35 36 37 38 39 40 41 42 43 44 45 46 47 48 49 50
000
ASUS43 KMPX 240610
RWRMN
WEATHER ROUNDUP FOR MINNESOTA
NATIONAL WEATHER SERVICE TWIN CITIES/CHANHASSEN MN
100 AM CDT MON JUL 24 2017


NOTE: "FAIR" INDICATES FEW OR NO CLOUDS BELOW 12,000 FEET WITH NO
SIGNIFICANT WEATHER AND/OR OBSTRUCTIONS TO VISIBILITY. N/A MEANS
CURRENT SKY AND/OR WEATHER CONDITIONS ARE NOT AVAILABLE.

MNZ060>063-068>070-240700-
   Twin Cities Metro

CITY           SKY/WX    TMP DP  RH WIND       PRES   REMARKS
TWIN CITIES    CLEAR     64  56  75 NE8       30.03S
6HR MIN TEMP:  64; 6HR MAX TEMP:  74;

ST PAUL        CLEAR     63  58  83 N3        30.03S
CRYSTAL        MOCLDY    62  56  80 CALM      30.02S
BLAINE         CLEAR     61  61 100 CALM      30.03S
LAKEVILLE      CLEAR     55  55 100 CALM      30.03S
EDEN PRAIRIE   CLEAR     65  57  75 NE3       30.02S
6HR MIN TEMP:  65; 6HR MAX TEMP:  76;

SOUTH ST PAUL  CLEAR     63  56  78 CALM      30.03S
LAKE ELMO      FAIR      61  57  88 N3        30.04S
$$
MNZ001>005-007-008-013>017-022>024-027-028-240700-
   Northwest Minnesota

CITY           SKY/WX    TMP DP  RH WIND       PRES   REMARKS
BEMIDJI        CLEAR     55  53  91 CALM      30.04R
HALLOCK        CLEAR     61  61 100 SE7       29.97S
ROSEAU         CLEAR     59  54  82 S3        29.99S
WARROAD        CLEAR     63  57  82 S5        30.00F
THIEF RVR FALL CLEAR     60  57  89 SE6       30.02R
CROOKSTON      CLEAR     63  61  94 SE6       30.00S
FOSSTON        CLEAR     57  55  94 CALM      30.03R
DETROIT LAKES  MOCLDY    63  59  88 S5        30.04F
MOORHEAD       CLEAR     64  61  88 SE3       30.01S
PARK RAPIDS    CLEAR     59  55  87 CALM      30.04S
MAHNOMEN       FAIR      60  56  88 S3        30.02S
$$
MNZ006-009>011-018-025>026-240700-
   North Central Minnesota

CITY           SKY/WX    TMP DP  RH WIND       PRES   REMARKS
BAUDETTE       CLEAR     59  57  93 CALM      30.00S
FLAG ISLAND    PTCLDY    70  63  78 CALM      29.98S HAZE
INTL FALLS     CLEAR     51  49  92 CALM      30.02R
6HR MIN TEMP:  50; 6HR MAX TEMP:  77; 6HR PCP: TRACE;

WASKISH        CLEAR     57  55  94 CALM      30.02F
BIG FORK       PTCLDY    55  54  94 CALM      30.05R
LONGVILLE      CLEAR     59  57  94 CALM      30.05S
GRAND RAPIDS   CLEAR     58  55  90 S3        30.07S
CRANE LAKE     CLEAR     57  55  94 S3        30.06R
ORR            CLEAR     57  54  88 CALM      30.03S
COOK           CLEAR     55  55 100 CALM      30.05F
WALKER         FAIR      55  54  99 CALM      30.04S
$$
MNZ012-019>021-037-240700-
   Northeast Minnesota

CITY           SKY/WX    TMP DP  RH WIND       PRES   REMARKS
DULUTH         FOG       55  55 100 CALM      30.05F VSB 1/4
6HR MIN TEMP:  53; 6HR MAX TEMP:  64;

ELY            CLEAR     52  52 100 CALM      30.06S
HIBBING        FOG       50  50 100 CALM      30.06S VSB 3/4
EVELETH          N/A     53  50  90 CALM      30.07S FOG
DULUTH HARBOR  CLOUDY    59  57  94 CALM      30.06S
TWO HARBORS    CLEAR     52  46  82 CALM      30.04S HAZE
SILVER BAY     CLEAR     48  46  93 CALM      30.04S
GRAND MARAIS     N/A     53  51  93 CALM      30.03S
G MARAIS ARPRT CLEAR     46  43  87 CALM      30.06F
$$
MNZ029>031-032-039>041-046>048-054>057-064-240700-
   West Central Minnesota

CITY           SKY/WX    TMP DP  RH WIND       PRES   REMARKS
FERGUS FALLS   PTCLDY    66  61  82 SE3       30.02S
WHEATON        CLEAR     57  55  94 CALM      30.03S
MORRIS         MOCLDY    63  59  88 CALM      30.02S
ALEXANDRIA     CLEAR     64  60  87 SE8       30.05S
ELBOW LAKE     MOCLDY    64  62  91 E6        30.04R
WADENA         CLOUDY    59  59 100 CALM      30.04S
GLENWOOD       CLEAR     61  59  94 E6        30.05S
APPLETON       CLEAR     63  59  88 CALM      30.02S
BENSON         CLEAR     64  61  88 SE6       30.05S
ORTONVILLE     CLEAR     63  57  82 CALM      30.02S
MADISON        CLEAR     63  63 100 CALM      30.02F
WILLMAR        FAIR      64  61  88 E6        30.05S
$$
MNZ033>034-036-042>043-049>051-058-059-240700-
   Central Minnesota

CITY           SKY/WX    TMP DP  RH WIND       PRES   REMARKS
ST CLOUD       CLEAR     56  56 100 CALM      30.04S
6HR MIN TEMP:  56; 6HR MAX TEMP:  75;

SAUK CENTRE    FAIR      59  58  94 CALM      30.05S
PAYNESVILLE    CLEAR     60  58  92 CALM      30.05S
AITKIN         FOG       52  50  93 CALM      30.04S VSB 1/4
PINE RIVER     CLEAR     55  55 100 CALM      30.08S
BRAINERD       CLEAR     56  56 100 CALM      30.05S FOG
STAPLES        CLEAR     59  57  94 CALM      30.05S
LONG PRAIRIE   FAIR      59  55  88 CALM      30.06R
LITTLE FALLS   CLEAR     57  55  94 CALM      30.05S
LITCHFIELD     CLEAR     63  61  94 CALM      30.05R
BUFFALO        CLEAR     60  56  87 CALM      30.05R
MAPLE LAKE     CLEAR     60  58  93 CALM      30.05S
HUTCHINSON     CLEAR     62  59  90 NE5       30.04S
$$
MNZ037-044-045-052-053-240700-
   East Central Minnesota

CITY           SKY/WX    TMP DP  RH WIND       PRES   REMARKS
PRINCETON      FOG       55  55 100 CALM      30.04S VSB 1/2
MORA           CLEAR     55  54  94 CALM      30.06S
CAMBRIDGE      CLEAR     61  55  82 CALM      30.02F
RUSH CITY      MOCLDY    58  56  92 CALM      30.05R
MOOSE LAKE     MOCLDY    55  54  94 CALM      30.04S FOG
HINCKLEY       FAIR      54  54 100 CALM      30.05S
CLOQUET        CLOUDY    57  55  94 CALM      30.06S FOG
MCGREGOR       CLEAR     54  54 100 CALM      30.06S
$$
MNZ071>073-080-081-089-090-097-098-240700-
   Southwest Minnesota

CITY           SKY/WX    TMP DP  RH WIND       PRES   REMARKS
MONTEVIDEO     PTCLDY    61  55  82 E3        30.03S
GRANITE FALLS  CLEAR     65  61  85 NE5       30.04S
CANBY          CLEAR     59  56  90 CALM      30.04S
MARSHALL       MOCLDY    62  59  90 W5        30.03S
REDWOOD FALLS  CLEAR     65  59  81 E3        30.02S
OLIVIA         CLEAR     63  57  82 E5        30.02F
PIPESTONE      CLEAR     63  57  82 CALM      30.04F
WINDOM         CLEAR     63  59  88 NE5       30.03S
WORTHINGTON    CLEAR     59  57  93 NW3       30.05R
JACKSON        CLEAR     61  57  88 CALM      30.03S
SLAYTON        HVY RAIN  58  56  92 NW3       30.05S
$$
MNZ065>067-074>077-082>085-091>093-240700-
   South Central Minnesota

CITY           SKY/WX    TMP DP  RH WIND       PRES   REMARKS
MANKATO        CLEAR     63  58  83 E7        30.03R
NEW ULM        CLEAR     64  57  77 E3        30.03R
ST JAMES       CLOUDY    66  61  82 E5        30.03S
FAIRMONT       PTCLDY    62  60  93 E5        30.03S
GLENCOE        CLEAR     62  60  95 CALM      30.03R
FARIBAULT      MOCLDY    61  57  88 CALM      30.03R
OWATONNA       CLEAR     61  55  82 N3        30.02S
WASECA         CLEAR     59  55  88 NE3       30.04R
ALBERT LEA     CLEAR     61  57  88 CALM      30.02R
$$
MNZ078>079-086>088-094>096-240700-
   Southeast Minnesota

CITY           SKY/WX    TMP DP  RH WIND       PRES   REMARKS
ROCHESTER      CLEAR     61  58  90 NE8       30.02R
6HR MIN TEMP:  61; 6HR MAX TEMP:  72;

RED WING       CLEAR     59  55  88 CALM      30.00S
STANTON        PTCLDY    62  58  87 NE5       30.01S
DODGE CENTER   MOCLDY    61  57  88 NE5       30.02S
WINONA         MOCLDY    63  59  88 NW5       30.00R
AUSTIN         CLEAR     59  55  88 CALM      30.01S
PRESTON        CLEAR     58  56  92 N3        30.01S
$$
ABBREVIATIONS USED IN REMARKS
   TC - TEMPERATURES IN CELSIUS
  WCI - WIND CHILL INDEX
   HX - HEAT INDEX
  VSB - VISIBILITY
$$



USA.gov is the U.S. government's official web portal to all federal, state and local government web resources and services.